|
Cosmos 2219 - Orbit
|
Chris' Backyard Observatory;
01:58:28
| Home | Info | Passes |
|
View from above orbital plane
|
View from above satellite
|
Ground track
|
The orbit data is extracted from the following two-line orbital elements,
1 22219U 92076A 13169.12064449 .00000397 00000-0 23551-3 0 2542
2 22219 071.0601 007.2448 0016864 098.9825 049.8247 14.13428153 61894
| Epoch (UTC): | 18 June 2013 02:53:43 |
| Eccentricity: | 0.0016864 |
| inclination: | 71.0601° |
| perigee height: | 835 km |
| apogee height: | 860 km |
| right ascension of ascending node: | 7.2448° |
| argument of perigee: | 98.9825° |
| revolutions per day: | 14.13428153 |
| mean anomaly at epoch: | 49.8247° |
| orbit number at epoch: | 6189 |
The dashed part of the orbit path shows where the satellite is in the earth's shadow,
|
|